| time (UTC) | temp F | wind direction | speed MPH | gust MPH | rain 1hr in | rain 24hr in | rain mn in | humidity % | barometer mb |
| 20260901170801 | 79 | 40 | 2.0 | 5.0 | 0.00 | 0.00 | 0.00 | 57 | 1019.5 |
| 20260901165802 | 81 | 195 | 2.0 | 3.0 | 0.00 | 0.00 | 0.00 | 57 | 1019.5 |
| 20260901165301 | 81 | 195 | 1.0 | 2.0 | 0.00 | 0.00 | 0.00 | 54 | 1019.5 |
| 20260901164801 | 81 | 195 | 2.0 | 3.0 | 0.00 | 0.00 | 0.00 | 53 | 1019.5 |
| 20260901164300 | 82 | 195 | 2.0 | 5.0 | 0.00 | 0.00 | 0.00 | 55 | 1019.4 |
| 20260901163801 | 82 | 195 | 2.0 | 5.0 | 0.00 | 0.00 | 0.00 | 50 | 1019.4 |
| 20260901163302 | 82 | 215 | 2.0 | 5.0 | 0.00 | 0.00 | 0.00 | 50 | 1019.4 |
| 20260901162800 | 82 | 303 | 2.0 | 6.0 | 0.00 | 0.00 | 0.00 | 50 | 1019.4 |
| 20260901161801 | 82 | 208 | 2.0 | 5.0 | 0.00 | 0.00 | 0.00 | 51 | 1019.4 |
| 20260901161301 | 82 | 216 | 2.0 | 5.0 | 0.00 | 0.00 | 0.00 | 51 | 1019.4 |
| 20260901160802 | 82 | 2 | 2.0 | 5.0 | 0.00 | 0.00 | 0.00 | 51 | 1019.4 |
| 20260901160300 | 81 | 29 | 2.0 | 5.0 | 0.00 | 0.00 | 0.00 | 53 | 1019.4 |
| 20260901155801 | 81 | 190 | 2.0 | 6.0 | 0.00 | 0.00 | 0.00 | 51 | 1019.4 |
| 20260901155301 | 82 | 189 | 2.0 | 7.0 | 0.00 | 0.00 | 0.00 | 50 | 1019.4 |
| 20260901154801 | 82 | 328 | 2.0 | 7.0 | 0.00 | 0.00 | 0.00 | 49 | 1019.4 |
| 20260901154301 | 82 | 350 | 2.0 | 5.0 | 0.00 | 0.00 | 0.00 | 50 | 1019.5 |
| 20260901153802 | 82 | 17 | 2.0 | 7.0 | 0.00 | 0.00 | 0.00 | 51 | 1019.5 |
| 20260901153301 | 82 | 234 | 2.0 | 7.0 | 0.00 | 0.00 | 0.00 | 52 | 1019.5 |
| 20260901152801 | 81 | 353 | 2.0 | 7.0 | 0.00 | 0.00 | 0.00 | 51 | 1019.5 |
| 20260901152301 | 81 | 179 | 2.0 | 6.0 | 0.00 | 0.00 | 0.00 | 52 | 1019.5 |
| 20260901151801 | 82 | 0 | 2.0 | 6.0 | 0.00 | 0.00 | 0.00 | 51 | 1019.5 |
| 20260901151302 | 82 | 195 | 2.0 | 6.0 | 0.00 | 0.00 | 0.00 | 50 | 1019.5 |
| 20260901150801 | 82 | 306 | 2.0 | 7.0 | 0.00 | 0.00 | 0.00 | 51 | 1019.5 |
| 20260901150301 | 83 | 232 | 2.0 | 7.0 | 0.00 | 0.00 | 0.00 | 50 | 1019.5 |
| 20260901145801 | 83 | 168 | 2.0 | 7.0 | 0.00 | 0.00 | 0.00 | 48 | 1019.6 |
| 20260901145306 | 83 | 197 | 2.0 | 7.0 | 0.00 | 0.00 | 0.00 | 48 | 1019.6 |
| 20260901144302 | 84 | 321 | 5.0 | 8.0 | 0.00 | 0.00 | 0.00 | 48 | 1019.5 |
| 20260901143802 | 84 | 151 | 3.0 | 8.0 | 0.00 | 0.00 | 0.00 | 48 | 1019.5 |
| 20260901143301 | 84 | 193 | 3.0 | 7.0 | 0.00 | 0.00 | 0.00 | 48 | 1019.5 |
| 20260901141801 | 84 | 204 | 3.0 | 8.0 | 0.00 | 0.00 | 0.00 | 48 | 1019.5 |
| 20260901141301 | 84 | 197 | 3.0 | 9.0 | 0.00 | 0.00 | 0.00 | 48 | 1019.6 |
| 20260901140302 | 84 | 329 | 3.0 | 9.0 | 0.00 | 0.00 | 0.00 | 47 | 1019.6 |
| 20260901135803 | 84 | 354 | 3.0 | 12.0 | 0.00 | 0.00 | 0.00 | 45 | 1019.6 |
| 20260901135305 | 84 | 318 | 2.0 | 12.0 | 0.00 | 0.00 | 0.00 | 45 | 1019.6 |
| 20260901134301 | 85 | 224 | 2.0 | 5.0 | 0.00 | 0.00 | 0.00 | 44 | 1019.7 |
| 20260901133301 | 85 | 224 | 2.0 | 3.0 | 0.00 | 0.00 | 0.00 | 47 | 1019.7 |
| 20260901132301 | 84 | 167 | 2.0 | 5.0 | 0.00 | 0.00 | 0.00 | 45 | 1019.8 |
| 20260901131801 | 83 | 197 | 2.0 | 6.0 | 0.00 | 0.00 | 0.00 | 48 | 1019.8 |
| 20260901131301 | 83 | 197 | 2.0 | 6.0 | 0.00 | 0.00 | 0.00 | 47 | 1020.0 |
| 20260901130801 | 83 | 194 | 2.0 | 6.0 | 0.00 | 0.00 | 0.00 | 49 | 1020.0 |
| 20260901130301 | 83 | 186 | 2.0 | 6.0 | 0.00 | 0.00 | 0.00 | 47 | 1020.0 |
| 20260901125801 | 82 | 215 | 2.0 | 6.0 | 0.00 | 0.00 | 0.00 | 48 | 1020.1 |
| 20260901125308 | 82 | 265 | 2.0 | 5.0 | 0.00 | 0.00 | 0.00 | 47 | 1020.1 |
| 20260901124802 | 82 | 238 | 2.0 | 5.0 | 0.00 | 0.00 | 0.00 | 49 | 1020.1 |
| 20260901124302 | 82 | 257 | 2.0 | 5.0 | 0.00 | 0.00 | 0.00 | 48 | 1020.1 |
| 20260901123802 | 82 | 197 | 2.0 | 5.0 | 0.00 | 0.00 | 0.00 | 49 | 1020.1 |
| 20260901123301 | 81 | 235 | 2.0 | 6.0 | 0.00 | 0.00 | 0.00 | 50 | 1020.1 |
| 20260901122801 | 81 | 182 | 3.0 | 6.0 | 0.00 | 0.00 | 0.00 | 50 | 1020.3 |
| 20260901122306 | 81 | 194 | 3.0 | 6.0 | 0.00 | 0.00 | 0.00 | 49 | 1020.3 |
| 20260901121302 | 80 | 194 | 3.0 | 7.0 | 0.00 | 0.00 | 0.00 | 50 | 1020.4 |
| 20260901120801 | 80 | 206 | 3.0 | 7.0 | 0.00 | 0.00 | 0.00 | 51 | 1020.4 |
| 20260901120302 | 80 | 197 | 3.0 | 6.0 | 0.00 | 0.00 | 0.00 | 51 | 1020.4 |
| 20260901115801 | 79 | 199 | 3.0 | 6.0 | 0.00 | 0.00 | 0.00 | 52 | 1020.5 |
| 20260901114801 | 79 | 196 | 3.0 | 6.0 | 0.00 | 0.00 | 0.00 | 53 | 1020.5 |
| 20260901114301 | 79 | 200 | 3.0 | 7.0 | 0.00 | 0.00 | 0.00 | 53 | 1020.6 |
| 20260901113301 | 78 | 187 | 5.0 | 8.0 | 0.00 | 0.00 | 0.00 | 54 | 1020.6 |
| 20260901112802 | 78 | 198 | 4.0 | 8.0 | 0.00 | 0.00 | 0.00 | 55 | 1020.7 |
| 20260901111302 | 77 | 194 | 5.0 | 7.0 | 0.00 | 0.00 | 0.00 | 57 | 1020.9 |
| 20260901110302 | 77 | 193 | 5.0 | 8.0 | 0.00 | 0.00 | 0.00 | 59 | 1020.9 |
| 20260901105801 | 76 | 183 | 3.0 | 7.0 | 0.00 | 0.00 | 0.00 | 60 | 1021.0 |
| 20260901105305 | 76 | 190 | 3.0 | 7.0 | 0.00 | 0.00 | 0.00 | 60 | 1021.0 |
| 20260901104801 | 76 | 195 | 3.0 | 8.0 | 0.00 | 0.00 | 0.00 | 61 | 1021.0 |
| 20260901104302 | 76 | 237 | 2.0 | 8.0 | 0.00 | 0.00 | 0.00 | 62 | 1021.1 |
| 20260901103302 | 75 | 178 | 2.0 | 7.0 | 0.00 | 0.00 | 0.00 | 63 | 1021.1 |
| 20260901102801 | 75 | 192 | 2.0 | 7.0 | 0.00 | 0.00 | 0.00 | 63 | 1021.4 |
| 20260901102301 | 75 | 196 | 2.0 | 5.0 | 0.00 | 0.00 | 0.00 | 65 | 1021.4 |
| 20260901101801 | 75 | 211 | 2.0 | 6.0 | 0.00 | 0.00 | 0.00 | 64 | 1021.4 |
| 20260901101301 | 75 | 197 | 2.0 | 6.0 | 0.00 | 0.00 | 0.00 | 66 | 1021.4 |
| 20260901100302 | 74 | 212 | 2.0 | 6.0 | 0.00 | 0.00 | 0.00 | 66 | 1021.4 |
| 20260901095801 | 74 | 341 | 2.0 | 7.0 | 0.00 | 0.00 | 0.00 | 66 | 1021.5 |
| 20260901095302 | 74 | 199 | 2.0 | 7.0 | 0.00 | 0.00 | 0.00 | 66 | 1021.5 |
| 20260901094801 | 74 | 156 | 2.0 | 6.0 | 0.00 | 0.00 | 0.00 | 67 | 1021.5 |
| 20260901094301 | 74 | 327 | 2.0 | 6.0 | 0.00 | 0.00 | 0.00 | 67 | 1021.6 |
| 20260901093802 | 73 | 192 | 2.0 | 6.0 | 0.00 | 0.00 | 0.00 | 66 | 1021.6 |
| 20260901093301 | 73 | 58 | 2.0 | 6.0 | 0.00 | 0.00 | 0.00 | 66 | 1021.6 |
| 20260901092802 | 72 | 258 | 2.0 | 6.0 | 0.00 | 0.00 | 0.00 | 68 | 1021.7 |
| 20260901092305 | 72 | 202 | 2.0 | 6.0 | 0.00 | 0.00 | 0.00 | 68 | 1021.7 |
| 20260901091801 | 72 | 305 | 2.0 | 6.0 | 0.00 | 0.00 | 0.00 | 69 | 1021.7 |
| 20260901091302 | 71 | 203 | 2.0 | 6.0 | 0.00 | 0.00 | 0.00 | 72 | 1021.6 |
| 20260901090801 | 71 | 200 | 2.0 | 6.0 | 0.00 | 0.00 | 0.00 | 71 | 1021.6 |
| 20260901090303 | 71 | 219 | 2.0 | 6.0 | 0.00 | 0.00 | 0.00 | 72 | 1021.6 |
| 20260901085802 | 71 | 254 | 2.0 | 6.0 | 0.00 | 0.00 | 0.00 | 74 | 1021.6 |
| 20260901085305 | 70 | 218 | 2.0 | 6.0 | 0.00 | 0.00 | 0.00 | 74 | 1021.6 |
| 20260901084802 | 70 | 249 | 2.0 | 6.0 | 0.00 | 0.00 | 0.00 | 74 | 1021.6 |
| 20260901083802 | 69 | 255 | 2.0 | 5.0 | 0.00 | 0.00 | 0.00 | 77 | 1021.5 |
| 20260901082802 | 69 | 225 | 2.0 | 5.0 | 0.00 | 0.00 | 0.00 | 76 | 1021.5 |
| 20260901082301 | 69 | 175 | 2.0 | 3.0 | 0.00 | 0.00 | 0.00 | 76 | 1021.5 |
| 20260901081802 | 69 | 195 | 2.0 | 3.0 | 0.00 | 0.00 | 0.00 | 76 | 1021.5 |
| 20260901081302 | 69 | 194 | 2.0 | 5.0 | 0.00 | 0.00 | 0.00 | 76 | 1021.5 |
| 20260901080301 | 69 | 270 | 2.0 | 3.0 | 0.00 | 0.00 | 0.00 | 76 | 1021.5 |
| 20260901075801 | 68 | 42 | 2.0 | 5.0 | 0.00 | 0.00 | 0.00 | 76 | 1021.4 |
| 20260901075301 | 68 | 290 | 2.0 | 5.0 | 0.00 | 0.00 | 0.00 | 76 | 1021.4 |
| 20260901074802 | 68 | 241 | 2.0 | 5.0 | 0.00 | 0.00 | 0.00 | 76 | 1021.4 |
| 20260901074302 | 68 | 273 | 2.0 | 5.0 | 0.00 | 0.00 | 0.00 | 77 | 1021.5 |
| 20260901073802 | 68 | 191 | 2.0 | 5.0 | 0.00 | 0.00 | 0.00 | 79 | 1021.5 |
| 20260901073302 | 67 | 158 | 2.0 | 5.0 | 0.00 | 0.00 | 0.00 | 79 | 1021.5 |
| 20260901072802 | 67 | 254 | 2.0 | 6.0 | 0.00 | 0.00 | 0.00 | 79 | 1021.5 |
| 20260901071801 | 67 | 203 | 2.0 | 6.0 | 0.00 | 0.00 | 0.00 | 79 | 1021.5 |
| 20260901070802 | 67 | 245 | 2.0 | 3.0 | 0.00 | 0.00 | 0.00 | 79 | 1021.5 |
| 20260901070302 | 67 | 241 | 2.0 | 5.0 | 0.00 | 0.00 | 0.00 | 80 | 1021.5 |
| 20260901065802 | 67 | 237 | 2.0 | 5.0 | 0.00 | 0.00 | 0.00 | 80 | 1021.5 |
| 20260901065305 | 67 | 245 | 1.0 | 3.0 | 0.00 | 0.00 | 0.00 | 81 | 1021.5 |
| 20260901064801 | 66 | 282 | 1.0 | 5.0 | 0.00 | 0.00 | 0.00 | 82 | 1021.5 |
| 20260901064302 | 66 | 282 | 1.0 | 5.0 | 0.00 | 0.00 | 0.00 | 81 | 1021.4 |
| 20260901063801 | 66 | 193 | 1.0 | 3.0 | 0.00 | 0.00 | 0.00 | 82 | 1021.4 |
| 20260901063301 | 66 | 47 | 0.0 | 2.0 | 0.00 | 0.00 | 0.00 | 83 | 1021.4 |
| 20260901062802 | 66 | 46 | 1.0 | 2.0 | 0.00 | 0.00 | 0.00 | 83 | 1021.5 |
| 20260901061803 | 66 | 103 | 1.0 | 2.0 | 0.00 | 0.00 | 0.00 | 83 | 1021.5 |
| 20260901061302 | 65 | 335 | 1.0 | 2.0 | 0.00 | 0.00 | 0.00 | 82 | 1021.4 |
| 20260901060802 | 65 | 335 | 1.0 | 5.0 | 0.00 | 0.00 | 0.00 | 82 | 1021.4 |
| 20260901060301 | 65 | 334 | 1.0 | 5.0 | 0.00 | 0.00 | 0.00 | 83 | 1021.4 |
| 20260901055802 | 65 | 259 | 1.0 | 2.0 | 0.00 | 0.00 | 0.00 | 83 | 1021.3 |
| 20260901055306 | 65 | 259 | 0.0 | 2.0 | 0.00 | 0.00 | 0.00 | 83 | 1021.3 |
| 20260901054802 | 65 | 348 | 1.0 | 2.0 | 0.00 | 0.00 | 0.00 | 84 | 1021.3 |
| 20260901054302 | 65 | 348 | 1.0 | 2.0 | 0.00 | 0.00 | 0.00 | 84 | 1021.1 |
| 20260901053802 | 65 | 1 | 1.0 | 2.0 | 0.00 | 0.00 | 0.00 | 83 | 1021.1 |
| 20260901053302 | 65 | 9 | 1.0 | 3.0 | 0.00 | 0.00 | 0.00 | 83 | 1021.1 |
| 20260901052802 | 65 | 287 | 1.0 | 5.0 | 0.00 | 0.00 | 0.00 | 83 | 1020.9 |
| 20260901052306 | 65 | 297 | 1.0 | 5.0 | 0.00 | 0.00 | 0.00 | 83 | 1020.9 |
| 20260901051802 | 65 | 343 | 2.0 | 3.0 | 0.00 | 0.00 | 0.00 | 83 | 1020.9 |
| 20260901050802 | 65 | 352 | 2.0 | 3.0 | 0.00 | 0.00 | 0.00 | 82 | 1020.8 |
| 20260901050302 | 65 | 352 | 1.0 | 3.0 | 0.00 | 0.00 | 0.00 | 82 | 1020.8 |
| 20260901045802 | 65 | 352 | 1.0 | 3.0 | 0.00 | 0.00 | 0.00 | 82 | 1020.5 |
| 20260901045306 | 65 | 31 | 1.0 | 2.0 | 0.00 | 0.00 | 0.00 | 82 | 1020.5 |
| 20260901044302 | 65 | 39 | 2.0 | 5.0 | 0.00 | 0.00 | 0.00 | 82 | 1020.3 |
| 20260901043802 | 65 | 18 | 2.0 | 5.0 | 0.00 | 0.00 | 0.00 | 82 | 1020.3 |
| 20260901043302 | 65 | 13 | 1.0 | 5.0 | 0.00 | 0.00 | 0.00 | 81 | 1020.3 |
| 20260901042802 | 65 | 322 | 1.0 | 3.0 | 0.00 | 0.00 | 0.00 | 81 | 1020.2 |
| 20260901042305 | 65 | 340 | 1.0 | 3.0 | 0.00 | 0.00 | 0.00 | 81 | 1020.2 |
| 20260901041801 | 66 | 349 | 1.0 | 3.0 | 0.00 | 0.00 | 0.00 | 80 | 1020.2 |
| 20260901041302 | 66 | 306 | 0.0 | 2.0 | 0.00 | 0.00 | 0.00 | 81 | 1020.1 |
| 20260901040803 | 66 | 16 | 1.0 | 2.0 | 0.00 | 0.00 | 0.00 | 80 | 1020.1 |
| 20260901040302 | 66 | 16 | 2.0 | 2.0 | 0.00 | 0.00 | 0.00 | 80 | 1020.1 |
| 20260901035802 | 66 | 16 | 1.0 | 2.0 | 0.00 | 0.00 | 0.00 | 80 | 1020.0 |
| 20260901034802 | 66 | 45 | 1.0 | 2.0 | 0.00 | 0.00 | 0.00 | 80 | 1020.0 |
| 20260901034302 | 66 | 62 | 2.0 | 3.0 | 0.00 | 0.00 | 0.00 | 80 | 1019.9 |
| 20260901033303 | 66 | 353 | 2.0 | 3.0 | 0.00 | 0.00 | 0.00 | 80 | 1019.9 |
| 20260901032306 | 66 | 352 | 1.0 | 3.0 | 0.00 | 0.00 | 0.00 | 79 | 1019.9 |
| 20260901031802 | 66 | 352 | 1.0 | 3.0 | 0.00 | 0.00 | 0.00 | 79 | 1019.9 |
| 20260901031302 | 66 | 32 | 0.0 | 2.0 | 0.00 | 0.00 | 0.00 | 79 | 1019.9 |
| 20260901030302 | 67 | 34 | 1.0 | 2.0 | 0.00 | 0.00 | 0.00 | 79 | 1019.9 |
| 20260901025802 | 67 | 34 | 2.0 | 3.0 | 0.00 | 0.00 | 0.00 | 78 | 1020.0 |
| 20260901025305 | 67 | 34 | 2.0 | 3.0 | 0.00 | 0.00 | 0.00 | 78 | 1020.0 |
| 20260901024802 | 67 | 6 | 2.0 | 3.0 | 0.00 | 0.00 | 0.00 | 78 | 1020.0 |
| 20260901024302 | 67 | 6 | 1.0 | 3.0 | 0.00 | 0.00 | 0.00 | 78 | 1020.1 |
| 20260901023802 | 67 | 35 | 1.0 | 2.0 | 0.00 | 0.00 | 0.00 | 77 | 1020.1 |
| 20260901023302 | 67 | 19 | 1.0 | 5.0 | 0.00 | 0.00 | 0.00 | 77 | 1020.1 |
| 20260901022305 | 67 | 57 | 1.0 | 5.0 | 0.00 | 0.00 | 0.00 | 77 | 1020.0 |
| 20260901021802 | 67 | 81 | 1.0 | 5.0 | 0.00 | 0.00 | 0.00 | 77 | 1020.0 |
| 20260901021303 | 67 | 130 | 1.0 | 2.0 | 0.00 | 0.00 | 0.00 | 77 | 1020.1 |
| 20260901020802 | 67 | 130 | 1.0 | 3.0 | 0.00 | 0.00 | 0.00 | 77 | 1020.1 |
| 20260901020302 | 68 | 133 | 0.0 | 3.0 | 0.00 | 0.00 | 0.00 | 77 | 1020.1 |
| 20260901015802 | 68 | 137 | 1.0 | 3.0 | 0.00 | 0.00 | 0.00 | 76 | 1020.0 |
| 20260901015305 | 68 | 135 | 1.0 | 3.0 | 0.00 | 0.00 | 0.00 | 76 | 1020.0 |
| 20260901014802 | 68 | 135 | 1.0 | 3.0 | 0.00 | 0.00 | 0.00 | 76 | 1020.0 |
| 20260901014302 | 68 | 7 | 1.0 | 3.0 | 0.00 | 0.00 | 0.00 | 75 | 1019.9 |
| 20260901013802 | 68 | 7 | 2.0 | 3.0 | 0.00 | 0.00 | 0.00 | 74 | 1019.9 |
| 20260901013302 | 68 | 6 | 2.0 | 3.0 | 0.00 | 0.00 | 0.00 | 75 | 1019.9 |
| 20260901012803 | 68 | 7 | 2.0 | 3.0 | 0.00 | 0.00 | 0.00 | 75 | 1019.8 |
| 20260901012306 | 68 | 15 | 1.0 | 3.0 | 0.00 | 0.00 | 0.00 | 75 | 1019.8 |
| 20260901011302 | 69 | 41 | 1.0 | 2.0 | 0.00 | 0.00 | 0.00 | 77 | 1019.8 |
| 20260901010802 | 69 | 39 | 1.0 | 2.0 | 0.00 | 0.00 | 0.00 | 77 | 1019.8 |
| 20260901010302 | 69 | 39 | 1.0 | 2.0 | 0.00 | 0.00 | 0.00 | 75 | 1019.8 |
| 20260901005802 | 69 | 43 | 1.0 | 2.0 | 0.00 | 0.00 | 0.00 | 77 | 1019.7 |
| 20260901005306 | 69 | 97 | 0.0 | 2.0 | 0.00 | 0.00 | 0.00 | 77 | 1019.7 |
| 20260901003802 | 69 | 97 | 2.0 | 2.0 | 0.00 | 0.00 | 0.00 | 77 | 1019.6 |
| 20260901003302 | 69 | 97 | 2.0 | 5.0 | 0.00 | 0.00 | 0.00 | 75 | 1019.6 |
| 20260901002802 | 69 | 96 | 2.0 | 5.0 | 0.00 | 0.00 | 0.00 | 75 | 1019.3 |
| 20260901002305 | 69 | 10 | 1.0 | 3.0 | 0.00 | 0.00 | 0.00 | 75 | 1019.3 |
| 20260901001302 | 69 | 1 | 2.0 | 3.0 | 0.00 | 0.00 | 0.00 | 78 | 1019.1 |
| 20260901000802 | 69 | 2 | 2.0 | 3.0 | 0.00 | 0.00 | 0.00 | 78 | 1019.1 |
| 20260901000303 | 69 | 2 | 1.0 | 3.0 | 0.00 | 0.00 | 0.00 | 79 | 1019.1 |
| 20260831235802 | 69 | 2 | 2.0 | 3.0 | 0.00 | 0.00 | 0.00 | 80 | 1018.9 |
| 20260831234802 | 69 | 2 | 1.0 | 5.0 | 0.00 | 0.00 | 0.00 | 81 | 1018.9 |
| 20260831234302 | 69 | 356 | 0.0 | 3.0 | 0.00 | 0.00 | 0.00 | 81 | 1018.7 |
| 20260831233803 | 69 | 356 | 1.0 | 2.0 | 0.00 | 0.00 | 0.00 | 82 | 1018.7 |
| 20260831233302 | 69 | 356 | 1.0 | 5.0 | 0.00 | 0.00 | 0.00 | 82 | 1018.7 |
| 20260831232803 | 69 | 356 | 2.0 | 5.0 | 0.00 | 0.00 | 0.00 | 82 | 1018.4 |
| 20260831232305 | 69 | 342 | 2.0 | 5.0 | 0.00 | 0.00 | 0.00 | 81 | 1018.4 |
| 20260831231802 | 69 | 342 | 2.0 | 6.0 | 0.00 | 0.00 | 0.00 | 81 | 1018.4 |
| 20260831230302 | 70 | 12 | 1.0 | 3.0 | 0.00 | 0.00 | 0.00 | 79 | 1018.0 |
| 20260831225803 | 70 | 289 | 1.0 | 5.0 | 0.00 | 0.00 | 0.00 | 78 | 1017.7 |
| 20260831224802 | 70 | 0 | 0.0 | 3.0 | 0.00 | 0.00 | 0.00 | 78 | 1017.7 |
| 20260831224303 | 70 | 0 | 0.0 | 2.0 | 0.00 | 0.00 | 0.00 | 78 | 1017.5 |
| 20260831222802 | 70 | 0 | 1.0 | 2.0 | 0.00 | 0.00 | 0.00 | 77 | 1017.4 |
| 20260831222306 | 71 | 0 | 1.0 | 2.0 | 0.00 | 0.00 | 0.00 | 76 | 1017.4 |
| 20260831221802 | 71 | 358 | 1.0 | 3.0 | 0.00 | 0.00 | 0.00 | 76 | 1017.4 |
| 20260831220905 | 72 | 322 | 2.0 | 3.0 | 0.00 | 0.00 | 0.00 | 74 | 1017.3 |
| 20260831220304 | 72 | 333 | 2.0 | 5.0 | 0.00 | 0.00 | 0.00 | 73 | 1017.3 |
| 20260831215803 | 72 | 342 | 2.0 | 5.0 | 0.00 | 0.00 | 0.00 | 72 | 1017.2 |
| 20260831215306 | 72 | 7 | 2.0 | 5.0 | 0.00 | 0.00 | 0.00 | 73 | 1017.2 |
| 20260831214802 | 72 | 9 | 2.0 | 6.0 | 0.00 | 0.00 | 0.00 | 73 | 1017.2 |
| 20260831214302 | 72 | 1 | 2.0 | 6.0 | 0.00 | 0.00 | 0.00 | 73 | 1017.2 |
| 20260831213303 | 71 | 3 | 2.0 | 5.0 | 0.00 | 0.00 | 0.00 | 73 | 1017.2 |
| 20260831212802 | 72 | 357 | 2.0 | 6.0 | 0.00 | 0.00 | 0.00 | 74 | 1017.2 |
| 20260831212306 | 72 | 357 | 1.0 | 6.0 | 0.00 | 0.00 | 0.00 | 74 | 1017.2 |
| 20260831211303 | 72 | 12 | 0.0 | 3.0 | 0.00 | 0.00 | 0.00 | 72 | 1017.0 |
| 20260831210802 | 72 | 37 | 1.0 | 2.0 | 0.00 | 0.00 | 0.00 | 74 | 1017.0 |
| 20260831210303 | 72 | 37 | 1.0 | 2.0 | 0.00 | 0.00 | 0.00 | 72 | 1017.0 |
| 20260831205803 | 73 | 35 | 1.0 | 2.0 | 0.00 | 0.00 | 0.00 | 71 | 1016.8 |
| 20260831205305 | 73 | 41 | 0.0 | 2.0 | 0.00 | 0.00 | 0.00 | 70 | 1016.8 |
| 20260831204303 | 73 | 10 | 1.0 | 2.0 | 0.00 | 0.00 | 0.00 | 71 | 1016.5 |
| 20260831203803 | 74 | 10 | 2.0 | 5.0 | 0.00 | 0.00 | 0.00 | 69 | 1016.5 |
| 20260831203302 | 74 | 10 | 2.0 | 5.0 | 0.00 | 0.00 | 0.00 | 70 | 1016.5 |
| 20260831202306 | 74 | 347 | 2.0 | 6.0 | 0.00 | 0.00 | 0.00 | 69 | 1016.1 |
| 20260831201803 | 74 | 254 | 2.0 | 6.0 | 0.00 | 0.00 | 0.00 | 68 | 1016.1 |
| 20260831201303 | 74 | 19 | 1.0 | 5.0 | 0.00 | 0.00 | 0.00 | 67 | 1016.3 |
| 20260831200802 | 74 | 0 | 2.0 | 5.0 | 0.00 | 0.00 | 0.00 | 67 | 1016.3 |
| 20260831200303 | 74 | 6 | 2.0 | 6.0 | 0.00 | 0.00 | 0.00 | 68 | 1016.3 |
| 20260831195306 | 75 | 329 | 3.0 | 6.0 | 0.00 | 0.00 | 0.00 | 67 | 1016.0 |
| 20260831194802 | 75 | 358 | 3.0 | 6.0 | 0.00 | 0.00 | 0.00 | 65 | 1016.0 |
| 20260831194303 | 75 | 2 | 2.0 | 6.0 | 0.00 | 0.00 | 0.00 | 65 | 1015.8 |
| 20260831193803 | 75 | 1 | 2.0 | 6.0 | 0.00 | 0.00 | 0.00 | 65 | 1015.8 |
| 20260831193302 | 75 | 18 | 2.0 | 5.0 | 0.00 | 0.00 | 0.00 | 65 | 1015.8 |
| 20260831192305 | 76 | 24 | 2.0 | 5.0 | 0.00 | 0.00 | 0.00 | 65 | 1015.7 |
| 20260831191803 | 75 | 20 | 2.0 | 7.0 | 0.00 | 0.00 | 0.00 | 65 | 1015.7 |
| 20260831191303 | 75 | 355 | 2.0 | 7.0 | 0.00 | 0.00 | 0.00 | 65 | 1015.6 |
| 20260831190803 | 75 | 347 | 2.0 | 6.0 | 0.00 | 0.00 | 0.00 | 65 | 1015.6 |
| 20260831185802 | 76 | 23 | 2.0 | 3.0 | 0.00 | 0.00 | 0.00 | 67 | 1015.3 |
| 20260831184303 | 76 | 237 | 2.0 | 7.0 | 0.00 | 0.00 | 0.00 | 66 | 1015.0 |
| 20260831183803 | 77 | 17 | 3.0 | 7.0 | 0.00 | 0.00 | 0.00 | 66 | 1015.0 |
| 20260831183303 | 77 | 340 | 3.0 | 7.0 | 0.00 | 0.00 | 0.00 | 62 | 1015.0 |
| 20260831182803 | 77 | 3 | 3.0 | 7.0 | 0.00 | 0.00 | 0.00 | 62 | 1014.8 |
| 20260831182305 | 77 | 8 | 3.0 | 6.0 | 0.00 | 0.00 | 0.00 | 62 | 1014.8 |
| 20260831181804 | 77 | 12 | 3.0 | 6.0 | 0.00 | 0.00 | 0.00 | 62 | 1014.8 |
| 20260831180803 | 78 | 357 | 3.0 | 7.0 | 0.00 | 0.00 | 0.00 | 61 | 1015.0 |
| 20260831175803 | 78 | 354 | 3.0 | 6.0 | 0.00 | 0.00 | 0.00 | 60 | 1014.9 |
| 20260831175306 | 79 | 3 | 3.0 | 6.0 | 0.00 | 0.00 | 0.00 | 60 | 1014.9 |
| 20260831174804 | 79 | 28 | 3.0 | 6.0 | 0.00 | 0.00 | 0.00 | 60 | 1014.9 |
| 20260831174303 | 80 | 358 | 3.0 | 5.0 | 0.00 | 0.00 | 0.00 | 59 | 1014.7 |
| 20260831173804 | 80 | 3 | 3.0 | 7.0 | 0.00 | 0.00 | 0.00 | 59 | 1014.7 |
| 20260831173304 | 80 | 1 | 2.0 | 7.0 | 0.00 | 0.00 | 0.00 | 58 | 1014.7 |
| 20260831172804 | 81 | 358 | 3.0 | 5.0 | 0.00 | 0.00 | 0.00 | 58 | 1014.9 |
| 20260831172306 | 81 | 40 | 3.0 | 6.0 | 0.00 | 0.00 | 0.00 | 58 | 1014.9 |